Location: Hanover
(52.3667°N, 9.7167°E)
Time: 05:04:55
(UTC+02:00)

ARIANE 6 FM1 Upper Stage - Pass Details

Date: 21 September 2024
Orbit: 564 x 594 km, 62.0° (Epoch: 06 October)

Event Time Altitude Azimuth Distance (km) Brightness Sun altitude
Exits shadow 03:03:01 14° 85° (E) 1,671 5.4 -32.4°
Drops below altitude 10° 03:03:47 10° 90° (E) 1,935 5.7 -32.3°
Sets 03:06:12 0° 100° (E) 2,837 6.5 -32.1°
